Weather History for Tacoma, WA

Change the Weather History Date:

Wednesday, January 2, 2013

  Actual Average Record
Temperature  
Mean Temperature 30 °F -  
Max Temperature 37 °F 44 °F 57 °F (2003)
Min Temperature 23 °F 32 °F 14 °F (1979)
Degree Days  
Heating Degree Days 35    
Moisture  
Dew Point 28 °F    
Average Humidity 99    
Maximum Humidity 100    
Minimum Humidity 93    
Precipitation  
Precipitation 0.00 in - - ()
Sea Level Pressure  
Sea Level Pressure 30.27 in    
Wind  
Wind Speed 2 mph (SSE)    
Max Wind Speed 6 mph    
Max Gust Speed -    
Visibility 2 miles    
Events Fog    
Averages and records for this station are not official NWS values.
T = Trace of Precipitation, MM = Missing Value Source: NWS Daily Summary

Daily Weather History Graph

Daily Weather History Graph

Search for Another Location

Airport:

Trip Planner

Search our weather history database for the weather conditions in past years. The results will help you decide how hot, cold, wet, or windy it might be!

Date:

Astronomy

Jan. 02, 2013 Rise Set
Actual Time 7:56 AM PST 4:32 PM PST
Civil Twilight 7:20 AM PST 5:07 PM PST
Nautical Twilight 6:42 AM PST 5:46 PM PST
Astronomical Twilight 6:05 AM PST 6:23 PM PST
Moon 10:35 PM PST (1/2) 10:18 AM PST (1/2)
Length of Visible Light 9h 46m
Length of Day
8h 36m
Waning Gibbous, 74% of the Moon is Illuminated
Jan 2
Waning Gibbous
Jan 4
Last Quarter
Jan 11
New
Jan 18
First Quarter
Jan 26
Full

Hourly Weather History & Observations

Time (PST) Temp. Windchill Dew Point Humidity Pressure Visibility Wind Dir Wind Speed Gust Speed Precip Events Conditions
12:50 AM 26.6 °F - 26.6 °F 100% 30.34 in 10.0 mi SSW 1.2 mph - N/A   Partly Cloudy
12:58 AM 26.8 °F - 26.6 °F 99% 30.36 in 10.0 mi South 2.3 mph - N/A   Scattered Clouds
1:03 AM 26.6 °F - 26.6 °F 100% 30.34 in 10.0 mi South 2.3 mph - N/A   Mostly Cloudy
1:31 AM 28.4 °F - 28.4 °F 100% 30.32 in 9.0 mi South 2.3 mph - N/A   Light Freezing Drizzle
1:36 AM 28.4 °F - 28.4 °F 100% 30.32 in 10.0 mi South 2.3 mph - N/A   Light Freezing Drizzle
1:58 AM 27.7 °F 23.8 °F 27.5 °F 99% 30.34 in 10.0 mi South 3.5 mph - 0.00 in   Light Freezing Drizzle
2:03 AM 28.4 °F - 28.4 °F 100% 30.32 in 2.5 mi South 2.3 mph - N/A   Light Freezing Drizzle
2:08 AM 28.4 °F - 28.4 °F 100% 30.32 in 0.8 mi SSW 2.3 mph - N/A   Light Freezing Drizzle
2:13 AM 28.4 °F - 28.4 °F 100% 30.32 in 0.5 mi SSW 2.3 mph - N/A Fog Light Freezing Drizzle
2:18 AM 28.4 °F - 28.4 °F 100% 30.32 in 1.5 mi SSW 2.3 mph - N/A   Light Freezing Drizzle
2:23 AM 28.4 °F - 28.4 °F 100% 30.32 in 8.0 mi SSW 2.3 mph - N/A   Light Freezing Drizzle
2:38 AM 28.4 °F - 26.6 °F 93% 30.31 in 1.2 mi South 2.3 mph - N/A   Light Freezing Drizzle
2:43 AM 28.4 °F - 26.6 °F 93% 30.31 in 0.5 mi SSW 2.3 mph - N/A Fog Light Freezing Drizzle
2:53 AM 28.4 °F - 26.6 °F 93% 30.31 in 0.5 mi South 2.3 mph - N/A Fog Light Freezing Drizzle
2:58 AM 28.4 °F - 26.6 °F 93% 30.33 in 0.5 mi South 2.3 mph - 0.00 in Fog Light Freezing Drizzle
3:03 AM 28.4 °F - 26.6 °F 93% 30.31 in 0.5 mi SSE 1.2 mph - N/A Fog Light Freezing Drizzle
3:08 AM 28.4 °F - 26.6 °F 93% 30.31 in 0.8 mi South 1.2 mph - N/A   Light Freezing Drizzle
3:13 AM 28.4 °F - 28.4 °F 100% 30.31 in 0.8 mi Calm Calm - N/A   Light Freezing Drizzle
3:18 AM 28.4 °F - 28.4 °F 100% 30.30 in 0.5 mi South 1.2 mph - N/A Fog Light Freezing Drizzle
3:28 AM 28.4 °F - 28.4 °F 100% 30.31 in 0.5 mi WSW 1.2 mph - N/A Fog Light Freezing Drizzle
3:33 AM 28.4 °F - 28.4 °F 100% 30.31 in 0.2 mi SSW 2.3 mph - N/A Fog Light Freezing Drizzle
3:38 AM 28.4 °F - 28.4 °F 100% 30.30 in 0.2 mi South 2.3 mph - N/A Fog Light Freezing Fog
3:48 AM 28.4 °F - 28.4 °F 100% 30.30 in 0.2 mi Calm Calm - N/A Fog Light Freezing Fog
3:58 AM 27.9 °F - 27.7 °F 99% 30.32 in 0.2 mi South 1.2 mph - 0.00 in Fog Light Freezing Fog
4:03 AM 28.4 °F - 28.4 °F 100% 30.30 in 0.2 mi South 2.3 mph - N/A Fog Light Freezing Fog
4:18 AM 28.4 °F - 28.4 °F 100% 30.30 in 0.2 mi South 2.3 mph - N/A Fog Light Freezing Fog
4:23 AM 28.4 °F - 28.4 °F 100% 30.30 in 0.2 mi South 2.3 mph - N/A Fog Light Freezing Fog
4:28 AM 28.4 °F 24.6 °F 28.4 °F 100% 30.30 in 0.2 mi South 3.5 mph - N/A Fog Light Freezing Fog
4:38 AM 28.4 °F 24.6 °F 28.4 °F 100% 30.29 in 0.2 mi South 3.5 mph - N/A Fog Light Freezing Fog
4:43 AM 28.4 °F - 28.4 °F 100% 30.29 in 0.2 mi South 2.3 mph - N/A Fog Light Freezing Fog
4:44 AM 28.4 °F - 28.4 °F 100% 30.29 in 0.2 mi South 2.3 mph - N/A Fog Light Freezing Drizzle
4:58 AM 28.9 °F 25.2 °F 28.8 °F 99% 30.31 in 0.2 mi South 3.5 mph - 0.00 in Fog Light Freezing Drizzle
5:03 AM 28.4 °F 23.3 °F 28.4 °F 100% 30.29 in 0.2 mi South 4.6 mph - N/A Fog Light Freezing Drizzle
5:08 AM 28.4 °F 23.3 °F 28.4 °F 100% 30.29 in 0.2 mi South 4.6 mph - N/A Fog Light Freezing Drizzle
5:18 AM 30.2 °F 24.3 °F 28.4 °F 93% 30.29 in 0.2 mi South 5.8 mph - N/A Fog Light Freezing Drizzle
5:23 AM 30.2 °F 26.7 °F 28.4 °F 93% 30.29 in 0.2 mi South 3.5 mph - N/A Fog Light Freezing Drizzle
5:24 AM 30.2 °F 26.7 °F 28.4 °F 93% 30.29 in 0.2 mi South 3.5 mph - N/A Fog Light Freezing Drizzle
5:39 AM 30.2 °F 26.7 °F 28.4 °F 93% 30.29 in 0.2 mi South 3.5 mph - N/A Fog Light Freezing Drizzle
5:44 AM 30.2 °F 26.7 °F 28.4 °F 93% 30.29 in 0.5 mi South 3.5 mph - N/A Fog Light Freezing Drizzle
5:54 AM 28.4 °F - 28.4 °F 100% 30.29 in 0.8 mi South 2.3 mph - N/A   Light Freezing Drizzle
5:58 AM 28.9 °F - 28.8 °F 99% 30.32 in 0.8 mi South 2.3 mph - 0.00 in   Light Freezing Drizzle
6:08 AM 28.4 °F 24.6 °F 28.4 °F 100% 30.29 in 0.8 mi South 3.5 mph - N/A   Light Freezing Drizzle
6:13 AM 28.4 °F 24.6 °F 28.4 °F 100% 30.29 in 0.8 mi SSW 3.5 mph - N/A   Light Freezing Drizzle
6:23 AM 28.4 °F 24.6 °F 26.6 °F 93% 30.29 in 0.5 mi South 3.5 mph - N/A Fog Light Freezing Drizzle
6:28 AM 28.4 °F 24.6 °F 26.6 °F 93% 30.29 in 0.5 mi South 3.5 mph - N/A Fog Light Freezing Drizzle
6:43 AM 26.6 °F - 26.6 °F 100% 30.29 in 0.5 mi South 2.3 mph - N/A Fog Light Freezing Drizzle
6:48 AM 26.6 °F 21.2 °F 26.6 °F 100% 30.29 in 0.8 mi South 4.6 mph - N/A   Mist
6:50 AM 26.6 °F 22.6 °F 26.6 °F 100% 30.29 in 0.8 mi South 3.5 mph - N/A   Light Freezing Drizzle
6:56 AM 26.6 °F 22.6 °F 26.6 °F 100% 30.29 in 0.8 mi South 3.5 mph - N/A   Mist
6:58 AM 26.6 °F 22.6 °F 26.6 °F 100% 30.32 in 0.8 mi South 3.5 mph - 0.00 in   Mist
7:03 AM 26.6 °F 22.6 °F 26.6 °F 100% 30.29 in 1.0 mi SSW 3.5 mph - N/A   Mist
7:08 AM 26.6 °F 22.6 °F 26.6 °F 100% 30.29 in 0.8 mi South 3.5 mph - N/A   Mist
7:13 AM 26.6 °F 22.6 °F 26.6 °F 100% 30.29 in 0.5 mi SSE 3.5 mph - N/A Fog Light Freezing Fog
7:24 AM 26.6 °F 21.2 °F 26.6 °F 100% 30.29 in 0.5 mi SE 4.6 mph - N/A Fog Light Freezing Drizzle
7:44 AM 26.6 °F 21.2 °F 26.6 °F 100% 30.29 in 0.5 mi South 4.6 mph - N/A   Mist
7:45 AM 26.6 °F - 26.6 °F 100% 30.28 in 0.5 mi SE 2.3 mph - N/A Fog Light Freezing Drizzle
7:50 AM 26.6 °F - 26.6 °F 100% 30.28 in 0.5 mi SSE 2.3 mph - N/A Fog Light Freezing Fog
7:56 AM 26.6 °F - 26.6 °F 100% 30.28 in 0.5 mi South 2.3 mph - N/A Fog Light Freezing Fog
7:58 AM 26.6 °F - 26.6 °F 100% 30.32 in 0.2 mi South 2.3 mph - N/A Fog Light Freezing Fog
8:15 AM 26.6 °F - 26.6 °F 100% 30.29 in 0.2 mi SSE 2.3 mph - N/A Fog Light Freezing Fog
8:45 AM 26.6 °F 22.6 °F 26.6 °F 100% 30.30 in 0.1 mi South 3.5 mph - N/A Fog Light Freezing Fog
8:58 AM 27.5 °F - 27.3 °F 99% 30.32 in 0.2 mi South 2.3 mph - 0.00 in Fog Light Freezing Fog
9:08 AM 28.4 °F - 26.6 °F 93% 30.30 in 0.2 mi South 2.3 mph - N/A Fog Light Freezing Fog
9:28 AM 28.4 °F - 28.4 °F 100% 30.31 in 0.2 mi SE 2.3 mph - N/A Fog Light Freezing Fog
9:33 AM 28.4 °F - 28.4 °F 100% 30.31 in 0.2 mi SE 2.3 mph - N/A Fog Light Freezing Fog
9:38 AM 28.4 °F - 28.4 °F 100% 30.31 in 0.2 mi SE 2.3 mph - N/A Fog Light Freezing Fog
9:58 AM 28.4 °F - 28.2 °F 99% 30.34 in 0.2 mi Calm Calm - N/A Fog Light Freezing Fog
10:23 AM 28.4 °F - 28.4 °F 100% 30.31 in 0.2 mi ESE 2.3 mph - N/A Fog Light Freezing Fog
10:28 AM 28.4 °F - 28.4 °F 100% 30.31 in 0.2 mi ESE 2.3 mph - N/A Fog Light Freezing Fog
10:33 AM 28.4 °F - 28.4 °F 100% 30.31 in 0.2 mi ESE 1.2 mph - N/A Fog Light Freezing Fog
10:43 AM 28.4 °F - 28.4 °F 100% 30.31 in 0.5 mi ESE 2.3 mph - N/A Fog Light Freezing Fog
10:48 AM 28.4 °F - 28.4 °F 100% 30.31 in 0.5 mi ENE 1.2 mph - N/A Fog Light Freezing Fog
10:53 AM 28.4 °F - 28.4 °F 100% 30.31 in 0.8 mi East 1.2 mph - N/A   Mist
10:58 AM 28.9 °F - 28.8 °F 99% 30.34 in 0.8 mi Variable 1.2 mph - N/A   Mist
11:03 AM 28.4 °F 24.6 °F 28.4 °F 100% 30.31 in 1.0 mi SSW 3.5 mph - N/A   Mist
11:08 AM 28.4 °F - 28.4 °F 100% 30.31 in 0.8 mi North 1.2 mph - N/A   Mist
11:13 AM 28.4 °F - 28.4 °F 100% 30.31 in 0.5 mi SSW 2.3 mph - N/A Fog Light Freezing Fog
11:18 AM 28.4 °F - 28.4 °F 100% 30.31 in 0.5 mi South 2.3 mph - N/A Fog Light Freezing Fog
11:23 AM 28.4 °F - 28.4 °F 100% 30.31 in 0.2 mi Calm Calm - N/A Fog Light Freezing Fog
11:28 AM 28.4 °F - 28.4 °F 100% 30.30 in 0.5 mi South 1.2 mph - N/A Fog Light Freezing Fog
11:33 AM 30.2 °F - 28.4 °F 93% 30.30 in 0.8 mi Calm Calm - N/A   Mist
11:38 AM 30.2 °F - 30.2 °F 100% 30.30 in 1.2 mi Calm Calm - N/A   Overcast
11:43 AM 30.2 °F - 30.2 °F 100% 30.30 in 1.5 mi Calm Calm - N/A   Overcast
11:48 AM 32.0 °F - 32.0 °F 100% 30.30 in 1.5 mi Variable 2.3 mph - N/A   Overcast
11:58 AM 32.0 °F 28.7 °F 32.0 °F 100% 30.32 in 1.8 mi WSW 3.5 mph - N/A   Overcast
12:03 PM 32.0 °F - 32.0 °F 100% 30.30 in 4.0 mi WSW 2.3 mph - N/A   Overcast
12:08 PM 32.0 °F - 32.0 °F 100% 30.29 in 1.8 mi West 2.3 mph - N/A   Overcast
12:13 PM 32.0 °F - 32.0 °F 100% 30.29 in 1.2 mi Variable 2.3 mph - N/A   Overcast
12:28 PM 32.0 °F - 32.0 °F 100% 30.29 in 1.8 mi Variable 1.2 mph - N/A   Overcast
12:33 PM 32.0 °F - 32.0 °F 100% 30.29 in 2.5 mi SW 1.2 mph - N/A   Overcast
12:38 PM 32.0 °F - 32.0 °F 100% 30.28 in 3.0 mi Calm Calm - N/A   Overcast
12:43 PM 32.0 °F - 32.0 °F 100% 30.28 in 2.5 mi Calm Calm - N/A   Overcast
12:48 PM 32.0 °F - 32.0 °F 100% 30.28 in 2.0 mi NE 1.2 mph - N/A   Overcast
12:58 PM 32.2 °F - 32.0 °F 99% 30.30 in 2.5 mi East 1.2 mph - N/A   Overcast
1:03 PM 32.0 °F - 32.0 °F 100% 30.27 in 2.0 mi ESE 2.3 mph - N/A   Overcast
1:13 PM 32.0 °F - 32.0 °F 100% 30.27 in 2.5 mi Variable 2.3 mph - N/A   Overcast
1:18 PM 32.0 °F - 32.0 °F 100% 30.27 in 2.0 mi Calm Calm - N/A   Overcast
1:28 PM 32.0 °F - 32.0 °F 100% 30.27 in 2.5 mi Calm Calm - N/A   Mostly Cloudy
1:33 PM 32.0 °F - 32.0 °F 100% 30.27 in 3.0 mi SE 2.3 mph - N/A   Mostly Cloudy
1:43 PM 32.0 °F - 32.0 °F 100% 30.26 in 6.0 mi East 1.2 mph - N/A   Scattered Clouds
1:58 PM 34.7 °F - 34.3 °F 99% 30.28 in 10.0 mi Variable 1.2 mph - N/A   Partly Cloudy
2:58 PM 36.5 °F - 36.3 °F 99% 30.27 in 10.0 mi SSW 2.3 mph - N/A   Clear
3:58 PM 37.0 °F - 36.9 °F 99% 30.26 in 10.0 mi SSE 2.3 mph - N/A   Clear
4:58 PM 32.2 °F - 31.8 °F 99% 30.27 in 7.0 mi SSE 2.3 mph - N/A   Clear
5:23 PM 30.2 °F - 28.4 °F 93% 30.24 in 2.5 mi South 2.3 mph - N/A   Clear
5:28 PM 28.4 °F - 28.4 °F 100% 30.24 in 3.0 mi SSE 1.2 mph - N/A   Clear
5:53 PM 28.4 °F - 28.4 °F 100% 30.23 in 1.0 mi Calm Calm - N/A   Clear
5:58 PM 28.4 °F - 28.4 °F 100% 30.26 in 0.5 mi SSE 1.2 mph - N/A Fog Light Freezing Fog
6:03 PM 28.4 °F - 28.4 °F 100% 30.23 in 0.5 mi SE 2.3 mph - N/A Fog Light Freezing Fog
6:08 PM 28.4 °F - 28.4 °F 100% 30.23 in 0.5 mi ESE 1.2 mph - N/A Fog Light Freezing Fog
6:13 PM 28.4 °F - 28.4 °F 100% 30.23 in 0.5 mi ESE 1.2 mph - N/A Fog Light Freezing Fog
6:23 PM 28.4 °F - 28.4 °F 100% 30.23 in 0.2 mi Calm Calm - N/A Fog Light Freezing Fog
6:28 PM 28.4 °F - 28.4 °F 100% 30.22 in 0.2 mi Calm Calm - N/A Fog Light Freezing Fog
6:33 PM 28.4 °F - 28.4 °F 100% 30.22 in 0.2 mi Calm Calm - N/A Fog Light Freezing Fog
6:38 PM 28.4 °F - 28.4 °F 100% 30.22 in 0.2 mi Calm Calm - N/A Fog Light Freezing Fog
6:43 PM 28.4 °F - 28.4 °F 100% 30.22 in 0.5 mi SSE 1.2 mph - N/A Fog Light Freezing Fog
6:48 PM 28.4 °F - 28.4 °F 100% 30.22 in 0.5 mi SSE 1.2 mph - N/A Fog Light Freezing Fog
6:53 PM 28.4 °F - 26.6 °F 93% 30.23 in 0.8 mi South 2.3 mph - N/A   Clear
6:58 PM 26.6 °F - 26.6 °F 100% 30.25 in 0.5 mi South 2.3 mph - N/A Fog Light Freezing Fog
7:23 PM 28.4 °F - 28.4 °F 100% 30.22 in 0.2 mi Calm Calm - N/A Fog Light Freezing Fog
7:28 PM 28.4 °F - 28.4 °F 100% 30.22 in 0.5 mi Calm Calm - N/A Fog Light Freezing Fog
7:43 PM 28.4 °F - 28.4 °F 100% 30.21 in 0.2 mi Calm Calm - N/A Fog Light Freezing Fog
7:48 PM 26.6 °F - 26.6 °F 100% 30.21 in 0.2 mi East 1.2 mph - N/A Fog Light Freezing Fog
7:53 PM 26.6 °F - 26.6 °F 100% 30.21 in 0.5 mi Calm Calm - N/A Fog Light Freezing Fog
7:58 PM 26.2 °F - 25.9 °F 99% 30.24 in 0.5 mi East 1.2 mph - N/A Fog Light Freezing Fog
8:08 PM 26.6 °F - 24.8 °F 93% 30.21 in 0.2 mi SE 2.3 mph - N/A Fog Light Freezing Fog
8:13 PM 24.8 °F - 24.8 °F 100% 30.21 in 0.5 mi Calm Calm - N/A Fog Light Freezing Fog
8:23 PM 26.6 °F - 26.6 °F 100% 30.21 in 0.8 mi Calm Calm - N/A   Clear
8:28 PM 26.6 °F - 26.6 °F 100% 30.20 in 2.5 mi Calm Calm - N/A   Clear
8:33 PM 26.6 °F - 24.8 °F 93% 30.21 in 8.0 mi NE 1.2 mph - N/A   Clear
8:53 PM 26.6 °F - 26.6 °F 100% 30.20 in 1.8 mi Calm Calm - N/A   Clear
8:58 PM 25.5 °F - 25.3 °F 99% 30.24 in 1.2 mi South 2.3 mph - N/A   Clear
9:03 PM 24.8 °F - 24.8 °F 100% 30.21 in 1.8 mi South 2.3 mph - N/A   Clear
9:08 PM 24.8 °F 20.5 °F 24.8 °F 100% 30.21 in 7.0 mi South 3.5 mph - N/A   Clear
9:58 PM 24.6 °F - 24.1 °F 98% 30.23 in 4.0 mi SE 2.3 mph - N/A   Clear
10:03 PM 24.8 °F - 24.8 °F 100% 30.20 in 1.0 mi ESE 2.3 mph - N/A   Clear
10:08 PM 26.6 °F - 24.8 °F 93% 30.20 in 0.5 mi ESE 2.3 mph - N/A Fog Light Freezing Fog
10:13 PM 26.6 °F 22.6 °F 26.6 °F 100% 30.20 in 0.2 mi SSE 3.5 mph - N/A Fog Light Freezing Fog
10:23 PM 24.8 °F - 23.0 °F 93% 30.20 in 0.8 mi ESE 1.2 mph - N/A   Clear
10:28 PM 23.0 °F - 23.0 °F 100% 30.19 in 0.5 mi East 1.2 mph - N/A Fog Light Freezing Fog
10:33 PM 24.8 °F - 23.0 °F 93% 30.20 in 0.5 mi ESE 2.3 mph - N/A Fog Light Freezing Fog
10:38 PM 23.0 °F - 23.0 °F 100% 30.19 in 1.2 mi SE 2.3 mph - N/A   Clear
10:43 PM 23.0 °F - 23.0 °F 100% 30.19 in 1.8 mi ESE 1.2 mph - N/A   Clear
10:48 PM 23.0 °F - 23.0 °F 100% 30.19 in 1.0 mi East 1.2 mph - N/A   Clear
10:53 PM 24.8 °F - 23.0 °F 93% 30.19 in 1.0 mi Calm Calm - N/A   Clear
10:55 PM 24.8 °F - 24.8 °F 100% 30.19 in 1.2 mi Calm Calm - N/A   Partly Cloudy
10:58 PM 24.6 °F - 24.1 °F 98% 30.22 in 1.5 mi ESE 2.3 mph - N/A   Partly Cloudy
11:03 PM 26.6 °F - 24.8 °F 93% 30.19 in 3.0 mi SE 2.3 mph - N/A   Partly Cloudy
11:38 PM 24.8 °F - 24.8 °F 100% 30.19 in 8.0 mi South 2.3 mph - N/A   Partly Cloudy
11:48 PM 24.8 °F - 23.0 °F 93% 30.19 in 10.0 mi SE 2.3 mph - N/A   Clear
11:53 PM 24.8 °F - 24.8 °F 100% 30.19 in 9.0 mi East 2.3 mph - N/A   Clear
11:58 PM 24.6 °F - 24.1 °F 98% 30.22 in 7.0 mi East 1.2 mph - N/A   Clear